Weather History for KAOH - March, 2013

Change the Weather History Date:

Tuesday, March 5, 2013

  Actual Average (KFDY) Record (KFDY)
Temperature  
Mean Temperature 32 °F -  
Max Temperature 35 °F 42 °F 77 °F (1983)
Min Temperature 30 °F 26 °F -2 °F (1978)
Degree Days  
Heating Degree Days 32    
Moisture  
Dew Point 26 °F    
Average Humidity 79    
Maximum Humidity 88    
Minimum Humidity 67    
Precipitation  
Precipitation 0.28 in - - ()
Sea Level Pressure  
Sea Level Pressure 29.79 in    
Wind  
Wind Speed 11 mph (ENE)    
Max Wind Speed 20 mph    
Max Gust Speed 31 mph    
Visibility 5 miles    
Events Fog , Rain , Snow    
Averages and records for this station are not official NWS values.
T = Trace of Precipitation, MM = Missing Value Source: NWS Daily Summary

Daily Weather History Graph

Daily Weather History Graph

Search for Another Location

Airport or City:

Trip Planner

Search our weather history database for the weather conditions in past years. The results will help you decide how hot, cold, wet, or windy it might be!

Date:

Astronomy

Mar. 05, 2013 Rise Set
Actual Time 7:03 AM EST 6:32 PM EST
Civil Twilight 6:36 AM EST 6:59 PM EST
Nautical Twilight 6:04 AM EST 7:31 PM EST
Astronomical Twilight 5:32 AM EST 8:03 PM EST
Moon 2:16 AM EST (3/5) 12:08 PM EST (3/5)
Length of Visible Light 12h 23m
Length of Day
11h 28m
Last Quarter, 41% of the Moon is Illuminated
Mar 5
Last Quarter
Mar 11
New
Mar 19
First Quarter
Mar 27
Full
Apr 3
Last Quarter

Hourly Weather History & Observations

Time (EST) Temp. Windchill Dew Point Humidity Pressure Visibility Wind Dir Wind Speed Gust Speed Precip Events Conditions
12:53 AM 32.0 °F - 26.1 °F 79% 30.09 in 3.0 mi Calm Calm - 0.00 in Snow Light Snow
2:23 AM 32.0 °F 27.5 °F 26.6 °F 80% 30.04 in 7.0 mi ENE 4.6 mph - 0.00 in   Overcast
2:53 AM 32.0 °F 26.4 °F 26.1 °F 79% 30.04 in 3.0 mi East 5.8 mph - 0.00 in Snow Light Snow
3:53 AM 32.0 °F 25.6 °F 25.0 °F 75% 30.02 in 10.0 mi East 6.9 mph - 0.00 in   Overcast
4:53 AM 32.0 °F 24.2 °F 24.1 °F 73% 30.01 in 10.0 mi East 9.2 mph - N/A   Overcast
5:29 AM 32.0 °F 24.2 °F 24.8 °F 75% 29.97 in 10.0 mi East 9.2 mph - N/A   Overcast
5:53 AM 30.9 °F 21.7 °F 24.1 °F 76% 29.99 in 10.0 mi East 11.5 mph - N/A   Overcast
6:53 AM 32.0 °F 23.0 °F 24.1 °F 73% 29.99 in 10.0 mi East 11.5 mph - N/A   Overcast
8:53 AM 32.0 °F 22.5 °F 24.1 °F 73% 29.98 in 10.0 mi East 12.7 mph - N/A   Overcast
9:53 AM 34.0 °F 24.2 °F 24.1 °F 67% 29.96 in 10.0 mi East 15.0 mph - N/A   Overcast
10:53 AM 33.1 °F 24.4 °F 24.1 °F 70% 29.94 in 7.0 mi East 11.5 mph - N/A   Overcast
11:44 AM 33.8 °F 24.3 °F 26.6 °F 75% 29.88 in 6.0 mi East 13.8 mph 21.9 mph 0.00 in   Overcast
11:53 AM 33.1 °F 23.0 °F 26.1 °F 75% 29.91 in 8.0 mi East 15.0 mph 21.9 mph 0.00 in   Overcast
12:29 PM 33.8 °F 24.3 °F 26.6 °F 75% 29.86 in 7.0 mi East 13.8 mph - 0.00 in   Overcast
12:53 PM 35.1 °F 25.5 °F 27.0 °F 72% 29.86 in 8.0 mi East 15.0 mph - 0.00 in   Overcast
1:53 PM 34.0 °F 23.8 °F 27.0 °F 75% 29.82 in 7.0 mi East 16.1 mph - 0.00 in   Overcast
2:53 PM 35.1 °F 25.9 °F 27.0 °F 72% 29.78 in 10.0 mi ENE 13.8 mph - 0.00 in   Overcast
3:53 PM 35.1 °F 25.5 °F 26.1 °F 70% 29.75 in 6.0 mi ENE 15.0 mph - 0.00 in   Overcast
4:31 PM 33.8 °F 23.9 °F 26.6 °F 75% 29.70 in 2.5 mi ENE 15.0 mph 20.7 mph 0.02 in Snow Light Snow
4:44 PM 33.8 °F 24.3 °F 26.6 °F 75% 29.69 in 5.0 mi ENE 13.8 mph - 0.02 in Snow Light Snow
4:53 PM 34.0 °F 24.2 °F 27.0 °F 75% 29.70 in 7.0 mi ENE 15.0 mph 21.9 mph 0.02 in   Overcast
5:53 PM 32.0 °F 21.2 °F 27.0 °F 82% 29.68 in 7.0 mi NE 16.1 mph - 0.01 in   Overcast
6:16 PM 32.0 °F 21.2 °F 26.6 °F 80% 29.64 in 5.0 mi NE 16.1 mph 24.2 mph 0.01 in Rain Light Freezing Rain
6:53 PM 32.0 °F 21.6 °F 27.0 °F 82% 29.66 in 6.0 mi NE 15.0 mph 23.0 mph 0.02 in Rain Light Freezing Rain
7:53 PM 30.9 °F 19.8 °F 27.0 °F 85% 29.65 in 4.0 mi NE 16.1 mph - 0.03 in Rain Light Freezing Rain
8:17 PM 30.2 °F 18.9 °F 26.6 °F 86% 29.63 in 3.0 mi NE 16.1 mph 23.0 mph 0.02 in Snow Light Snow
8:29 PM 30.2 °F 18.9 °F 26.6 °F 86% 29.63 in 2.0 mi NE 16.1 mph 25.3 mph 0.03 in Snow Light Snow
8:35 PM 30.2 °F 18.9 °F 26.6 °F 86% 29.63 in 1.2 mi NE 16.1 mph 21.9 mph 0.04 in Snow Light Snow
8:50 PM 30.2 °F 18.1 °F 26.6 °F 86% 29.63 in 0.8 mi NE 18.4 mph 25.3 mph 0.05 in Snow Light Snow
8:51 PM 30.0 °F 18.3 °F 27.0 °F 88% 29.66 in 0.8 mi NE 17.3 mph 25.3 mph 0.05 in Snow Light Snow
9:06 PM 30.2 °F 18.1 °F 26.6 °F 86% 29.64 in 0.8 mi NNE 18.4 mph 24.2 mph 0.01 in Snow Light Snow
9:15 PM 30.2 °F 19.3 °F 26.6 °F 86% 29.64 in 0.5 mi NE 15.0 mph 24.2 mph 0.02 in Fog , Snow Snow
9:53 PM 30.0 °F 20.0 °F 27.0 °F 88% 29.68 in 0.5 mi NE 12.7 mph 21.9 mph 0.08 in Fog , Snow Snow
10:44 PM 30.2 °F 19.3 °F 26.6 °F 86% 29.65 in 0.8 mi NNE 15.0 mph - 0.04 in Snow Light Snow
10:53 PM 30.0 °F 18.3 °F 27.0 °F 88% 29.68 in 0.8 mi NNE 17.3 mph 25.3 mph 0.04 in Snow Light Snow
11:38 PM 30.2 °F 18.1 °F 26.6 °F 86% 29.64 in 0.5 mi NNE 18.4 mph 25.3 mph 0.02 in Fog , Snow Snow
11:53 PM 30.0 °F 17.5 °F 26.1 °F 85% 29.67 in 0.5 mi NNE 19.6 mph 31.1 mph 0.03 in Fog , Snow Snow